Date String (YYYY-MM-DD hh:mm:ss) UTC,Instrument flags,absolute air pressure of the measurement (hPa),sample flow rate (lpm),inlet stack bypass flow (lpm),air temperature of the measurement (°C),ambient temperature measured by the external sensor (°C),aerosol sample conditioner tube jacket temperature (°C),OPC LED temperature (°C),internal box temperature (°C),relative humidity of the measurement (%),span deviation,mass concentration of particles derived from Lorenz-Mie calculation of OPC scattering (μg/m³),mass concentration of particles derived from Lorenz-Mie calculation of OPC scattering (μg/m³),mass concentration of particles derived from Lorenz-Mie calculation of OPC scattering (μg/m³)
DateTimeUTC,F1_M11,P_M11,Q1_M11,Q2_M11,T1_M11,T2_M11,T3_M11,T4_M11,T5_M11,U1_M11,ZSPAN_M11,X2_M11,X0_M11,X1_M11
2023-08-12 17:00:00,SystemResetWarning,0833.2,5.00,000.00,029.0,026.4,000.0,037.5,030.6,30.7,0000.0,0004.21,0010.52,0003.52
2023-08-12 17:01:00,SystemResetWarning,0833.2,5.00,000.00,029.0,026.8,000.0,037.5,030.7,31.3,0000.0,0004.19,0010.55,0003.52
2023-08-12 17:02:00,SystemResetWarning,0833.2,5.00,000.00,029.1,027.1,000.0,037.5,030.7,31.2,0000.0,0004.22,0010.03,0003.52
2023-08-12 17:03:00,SystemResetWarning,0833.2,5.01,000.00,029.1,027.4,000.0,037.6,030.8,31.4,0000.0,0004.19,0009.55,0003.51
2023-08-12 17:04:00,SystemResetWarning,0833.2,5.00,000.00,029.1,027.6,000.0,037.6,030.9,30.5,0000.0,0004.23,0009.49,0003.51
2023-08-12 17:05:00,SystemResetWarning,0833.2,5.00,000.00,029.2,027.8,000.0,037.6,030.9,30.1,0000.0,0004.24,0009.32,0003.49
2023-08-12 17:06:00,SystemResetWarning,0833.1,5.00,000.00,029.2,027.9,000.0,037.6,031.0,30.4,0000.0,0004.24,0009.93,0003.48
2023-08-12 17:07:00,SystemResetWarning,0833.1,5.00,000.00,029.3,028.1,000.0,037.7,031.1,30.8,0000.0,0004.24,0010.42,0003.48
2023-08-12 17:08:00,SystemResetWarning,0833.2,5.01,000.00,029.3,028.2,000.0,037.7,031.1,30.2,0000.0,0004.28,0010.67,0003.48
2023-08-12 17:09:00,SystemResetWarning,0833.1,4.99,000.00,029.3,027.4,000.0,037.6,030.9,30.0,0000.0,0004.28,0010.34,0003.48
2023-08-12 17:10:00,SystemResetWarning,0833.1,5.00,000.00,029.3,025.6,000.0,037.5,030.6,30.8,0000.0,0004.27,0009.50,0003.47
2023-08-12 17:11:00,SystemResetWarning,0833.1,5.00,000.00,029.2,025.0,000.0,037.4,030.4,31.6,0000.0,0004.30,0009.92,0003.47
2023-08-12 17:12:00,SystemResetWarning,0833.0,5.01,000.00,029.1,025.3,000.0,037.4,030.3,32.2,0000.0,0004.30,0010.22,0003.47
2023-08-12 17:13:00,SystemResetWarning,0833.1,5.00,000.00,029.0,025.6,000.0,037.4,030.4,32.8,0000.0,0004.29,0010.31,0003.47
2023-08-12 17:14:00,SystemResetWarning,0833.1,5.00,000.00,029.0,026.1,000.0,037.5,030.5,31.2,0000.0,0004.30,0010.43,0003.47
2023-08-12 17:15:00,SystemResetWarning,0833.1,5.00,000.00,029.0,026.5,000.0,037.5,030.6,30.6,0000.0,0004.28,0010.55,0003.47
2023-08-12 17:16:00,SystemResetWarning,0833.2,5.00,000.00,029.0,026.8,000.0,037.5,030.7,31.0,0000.0,0004.24,0011.08,0003.48
2023-08-12 17:17:00,SystemResetWarning,0833.0,5.00,000.00,029.1,027.2,000.0,037.5,030.8,30.1,0000.0,0004.22,0010.45,0003.49
2023-08-12 17:18:00,SystemResetWarning,0833.0,4.98,000.00,029.1,027.4,000.0,037.6,030.8,30.1,0000.0,0004.16,0009.70,0003.49
2023-08-12 17:19:00,SystemResetWarning,0833.0,5.00,000.00,029.2,027.6,000.0,037.6,030.9,26.5,0000.0,0004.13,0009.50,0003.50
2023-08-12 17:20:00,SystemResetWarning,0833.2,5.00,000.00,029.2,027.8,000.0,037.6,031.0,27.7,0000.0,0004.16,0009.86,0003.52
2023-08-12 17:21:00,SystemResetWarning,0833.0,5.01,000.00,029.2,028.0,000.0,037.6,031.0,29.2,0000.0,0004.21,0010.21,0003.54
2023-08-12 17:22:00,SystemResetWarning,0833.2,5.01,000.00,029.3,028.1,000.0,037.7,031.1,29.0,0000.0,0004.21,0009.70,0003.55
2023-08-12 17:23:00,SystemResetWarning,0833.3,4.99,000.00,029.3,027.1,000.0,037.6,030.9,27.4,0000.0,0004.22,0009.44,0003.57
2023-08-12 17:24:00,SystemResetWarning,0833.0,5.00,000.00,029.2,025.4,000.0,037.5,030.5,25.7,0000.0,0004.23,0009.38,0003.59
2023-08-12 17:25:00,SystemResetWarning,0833.0,5.02,000.00,029.1,025.0,000.0,037.4,030.3,26.2,0000.0,0004.26,0009.41,0003.61
2023-08-12 17:26:00,SystemResetWarning,0833.0,5.00,000.00,029.0,025.2,000.0,037.4,030.2,25.9,0000.0,0004.33,0009.50,0003.63
2023-08-12 17:27:00,SystemResetWarning,0833.0,5.00,000.00,029.0,025.6,000.0,037.4,030.3,26.5,0000.0,0004.41,0009.43,0003.65
2023-08-12 17:28:00,SystemResetWarning,0832.9,5.00,000.00,029.0,026.1,000.0,037.5,030.5,26.0,0000.0,0004.46,0009.97,0003.67
2023-08-12 17:29:00,SystemResetWarning,0833.0,5.00,000.00,029.0,026.5,000.0,037.5,030.6,24.9,0000.0,0004.53,0010.37,0003.68
2023-08-12 17:30:00,SystemResetWarning,0832.9,5.00,000.00,029.0,026.9,000.0,037.5,030.7,25.1,0000.0,0004.58,0010.46,0003.70
2023-08-12 17:31:00,SystemResetWarning,0833.0,5.00,000.00,029.0,027.2,000.0,037.5,030.8,25.6,0000.0,0004.56,0010.36,0003.70
2023-08-12 17:32:00,SystemResetWarning,0833.0,5.00,000.00,029.1,027.4,000.0,037.5,030.8,26.1,0000.0,0004.55,0011.07,0003.71
2023-08-12 17:33:00,SystemResetWarning,0832.9,5.00,000.00,029.1,027.7,000.0,037.6,030.9,25.5,0000.0,0004.56,0010.92,0003.72
2023-08-12 17:34:00,SystemResetWarning,0832.9,4.99,000.00,029.2,027.9,000.0,037.6,030.9,25.7,0000.0,0004.56,0011.56,0003.72
2023-08-12 17:35:00,SystemResetWarning,0833.3,4.99,000.00,029.2,028.0,000.0,037.6,031.0,26.5,0000.0,0004.59,0011.93,0003.72
2023-08-12 17:36:00,SystemResetWarning,0833.3,5.00,000.00,029.3,027.5,000.0,037.6,030.9,26.8,0000.0,0004.55,0011.89,0003.72
2023-08-12 17:37:00,SystemResetWarning,0833.0,5.00,000.00,029.2,025.8,000.0,037.4,030.6,27.5,0000.0,0004.49,0011.79,0003.73
2023-08-12 17:38:00,SystemResetWarning,0832.9,5.01,000.00,029.1,025.0,000.0,037.3,030.4,27.4,0000.0,0004.44,0011.44,0003.73
2023-08-12 17:39:00,SystemResetWarning,0833.0,5.01,000.00,029.0,025.2,000.0,037.3,030.3,26.9,0000.0,0004.39,0010.90,0003.73
2023-08-12 17:40:00,SystemResetWarning,0832.9,5.01,000.00,029.0,025.5,000.0,037.4,030.3,27.1,0000.0,0004.34,0010.40,0003.73
2023-08-12 17:41:00,SystemResetWarning,0833.0,4.99,000.00,028.9,026.0,000.0,037.4,030.4,27.0,0000.0,0004.34,0010.66,0003.73
2023-08-12 17:42:00,SystemResetWarning,0833.0,5.00,000.00,029.0,026.4,000.0,037.4,030.5,27.5,0000.0,0004.34,0010.80,0003.73
2023-08-12 17:43:00,SystemResetWarning,0833.0,5.01,000.00,029.0,026.8,000.0,037.5,030.6,26.2,0000.0,0004.32,0009.89,0003.72
2023-08-12 17:44:00,SystemResetWarning,0833.0,5.00,000.00,029.0,027.1,000.0,037.5,030.7,26.2,0000.0,0004.35,0009.96,0003.71
2023-08-12 17:45:00,SystemResetWarning,0832.9,5.00,000.00,029.1,027.3,000.0,037.5,030.8,26.1,0000.0,0004.35,0009.73,0003.70
2023-08-12 17:46:00,SystemResetWarning,0833.3,5.00,000.00,029.1,027.6,000.0,037.5,030.9,26.0,0000.0,0004.34,0009.13,0003.70
2023-08-12 17:47:00,SystemResetWarning,0832.9,5.00,000.00,029.1,027.8,000.0,037.5,030.9,25.5,0000.0,0004.36,0009.09,0003.69
2023-08-12 17:48:00,SystemResetWarning,0833.1,4.99,000.00,029.2,028.0,000.0,037.6,031.0,25.6,0000.0,0004.36,0008.99,0003.68
2023-08-12 17:49:00,SystemResetWarning,0833.1,4.99,000.00,029.2,027.9,000.0,037.6,031.0,25.2,0000.0,0004.33,0008.86,0003.66
2023-08-12 17:50:00,SystemResetWarning,0833.0,5.00,000.00,029.2,026.4,000.0,037.5,030.8,25.4,0000.0,0004.34,0009.04,0003.64
2023-08-12 17:51:00,SystemResetWarning,0832.9,5.00,000.00,029.1,025.1,000.0,037.3,030.4,25.8,0000.0,0004.35,0009.17,0003.63
2023-08-12 17:52:00,SystemResetWarning,0832.9,5.01,000.00,029.1,025.1,000.0,037.3,030.3,24.6,0000.0,0004.29,0008.74,0003.60
2023-08-12 17:53:00,SystemResetWarning,0832.9,5.00,000.00,029.0,025.5,000.0,037.3,030.3,23.5,0000.0,0004.27,0008.54,0003.59
2023-08-12 17:54:00,SystemResetWarning,0832.9,5.00,000.00,028.9,025.9,000.0,037.4,030.4,23.8,0000.0,0004.28,0008.65,0003.57
2023-08-12 17:55:00,SystemResetWarning,0833.0,5.00,000.00,029.0,026.3,000.0,037.4,030.5,24.5,0000.0,0004.26,0008.42,0003.56
2023-08-12 17:56:00,SystemResetWarning,0832.9,4.99,000.00,029.0,026.7,000.0,037.4,030.6,24.9,0000.0,0004.23,0008.63,0003.56
2023-08-12 17:57:00,SystemResetWarning,0832.9,5.00,000.00,029.0,027.0,000.0,037.5,030.7,25.3,0000.0,0004.20,0008.56,0003.55
2023-08-12 17:58:00,SystemResetWarning,0833.1,5.01,000.00,029.0,027.3,000.0,037.5,030.8,24.5,0000.0,0004.17,0008.54,0003.54
2023-08-12 17:59:00,SystemResetWarning,0832.9,5.00,000.00,029.1,027.6,000.0,037.5,030.9,25.1,0000.0,0004.18,0008.96,0003.53
